Wind_Speed
23 23 23 24 24 24 25 27 28 27 28 27 27 27 26 26 27 27 27 27 27 27 28 28 28 28 29 30 31 32 32 33 33 34 34 35 35 35 36 36 36 36 36 36
23 23 24 24 24 24 25 25 26 27 26 25 26 26 26 26 26 26 27 27 27 28 28 28 27 28 28 29 30 31 31 32 33 33 34 34 35 35 35 35 36 36 36 36
23 23 24 24 23 23 24 24 25 26 25 24 24 25 25 25 26 26 26 27 27 27 28 28 28 27 28 28 29 30 30 30 31 32 32 33 34 34 34 34 35 35 35 35
24 24 25 22 22 23 23 23 24 24 23 23 24 24 25 26 26 25 26 27 28 28 28 27 27 28 28 28 28 28 29 30 30 30 31 32 32 32 32 33 33 34 33 34
26 26 25 22 23 23 24 23 22 23 23 24 24 24 24 25 25 26 26 27 27 27 28 28 27 27 28 28 28 28 28 29 29 30 30 31 31 31 31 31 32 32 32 32
26 26 26 23 23 23 24 22 21 22 23 23 24 24 24 24 25 26 26 26 26 26 26 27 27 27 27 27 27 27 28 29 29 29 29 29 30 30 29 29 29 30 31 31
26 27 26 24 24 25 25 23 22 23 24 24 24 25 25 25 25 26 26 26 26 25 26 26 26 26 26 26 26 27 27 28 28 28 28 28 28 28 28 28 28 28 29 29
26 27 26 25 25 25 26 25 25 24 24 25 25 25 24 24 25 26 25 25 25 25 25 25 26 26 26 26 26 27 27 27 27 27 27 27 27 27 27 27 27 27 27 27
28 27 26 26 27 27 27 26 26 25 25 25 25 25 25 25 25 25 25 24 24 25 25 25 25 26 26 26 26 26 26 26 26 25 25 25 25 25 25 25 26 25 25 24
28 26 26 26 26 27 27 27 26 26 26 26 25 25 25 25 25 25 25 25 25 24 24 25 25 25 25 25 25 25 25 25 24 24 23 23 24 24 24 24 24 24 23 22
27 26 26 26 27 27 27 27 26 26 26 26 25 25 24 24 24 24 25 26 26 25 24 25 25 24 24 24 24 23 23 22 22 22 22 21 22 23 23 23 22 22 22 21
28 27 27 26 26 26 26 26 26 25 24 24 25 24 24 24 24 24 25 26 25 25 24 24 24 23 23 23 23 22 21 21 21 20 20 20 21 21 21 21 21 21 21 21
29 28 28 27 26 27 26 26 25 25 24 24 24 24 24 25 25 25 26 26 24 24 24 24 23 23 22 23 22 21 20 20 20 20 20 20 20 20 19 19 19 19 19 19
28 28 28 28 27 26 26 25 25 24 24 23 24 24 24 25 25 25 25 24 24 23 23 23 23 22 21 22 21 20 19 19 19 19 19 19 19 19 18 18 18 18 18 18
27 27 27 27 26 25 25 25 24 23 23 23 23 24 24 24 24 24 24 23 23 22 22 22 22 21 20 20 20 19 18 18 18 17 17 17 17 17 17 17 17 17 17 17
26 26 26 25 25 25 24 24 24 22 22 23 23 23 24 23 23 23 22 22 22 21 21 21 20 20 19 19 19 18 18 17 17 16 16 16 16 15 15 15 15 15 15 15
24 25 25 25 24 24 24 23 23 22 22 22 23 23 23 23 22 22 21 21 21 21 20 20 19 19 18 18 18 17 17 16 16 16 16 15 14 14 13 13 13 13 13 13
22 23 24 24 23 24 24 23 22 22 22 22 22 22 22 22 22 21 21 21 21 20 20 19 19 18 17 17 17 16 15 15 15 15 14 14 13 12 12 11 11 10 10 10
21 21 22 23 23 24 24 23 22 21 21 21 21 21 22 21 21 21 21 21 21 20 20 18 17 17 16 16 15 15 14 13 13 13 12 11 11 10 9 9 9 8 8 8
20 21 22 22 22 22 21 20 19 19 20 21 21 21 21 20 20 20 20 20 20 19 18 17 16 15 14 14 14 13 12 12 11 11 10 9 9 8 7 7 7 7 7 6
20 20 19 20 20 19 19 19 19 19 20 20 20 19 20 19 19 18 18 19 18 17 16 15 14 13 13 12 12 11 11 11 10 10 9 8 7 6 6 6 6 6 6 5
19 19 19 19 18 18 18 18 18 19 19 18 18 18 18 18 17 17 17 17 16 15 14 14 14 13 12 11 10 10 10 10 10 9 8 7 7 6 6 5 5 5 5 5
18 18 17 17 16 16 16 16 17 17 17 17 18 18 17 16 16 16 15 15 14 14 14 13 13 12 11 10 10 10 10 9 9 8 8 7 7 6 6 5 5 5 5 4
17 16 15 14 14 14 14 15 15 15 15 16 16 16 16 15 15 14 14 14 14 13 13 12 12 11 10 10 9 9 9 9 8 8 8 8 7 7 6 5 5 5 5 5
15 15 15 14 14 14 14 15 16 16 16 16 15 15 15 14 13 13 13 13 12 12 11 11 11 11 10 10 9 9 9 9 9 8 8 8 7 7 6 5 5 5 5 5
14 14 14 13 13 14 14 15 16 16 16 15 15 14 13 12 12 12 12 12 11 11 10 10 10 10 10 10 9 9 8 8 8 8 8 8 8 7 7 6 5 5 5 5
14 14 14 14 14 14 14 15 15 15 15 15 14 13 12 12 11 11 11 11 10 10 10 9 9 9 9 10 9 9 8 8 8 7 7 7 7 7 7 6 6 5 5 6
Wind_Direction
289 288 285 285 284 284 283 284 284 284 284 286 286 285 283 281 280 279 279 278 277 277 278 277 275 273 270 269 269 270 270 269 268 269 268 268 267 267 267 268 269 270 270 271
290 291 288 284 283 284 285 285 285 285 285 286 283 284 283 283 282 280 279 279 279 278 278 277 276 275 272 271 270 269 269 268 268 269 269 269 269 268 267 268 269 270 270 271
291 292 289 286 287 287 288 287 287 287 288 286 283 283 283 283 283 282 281 281 280 279 279 280 278 277 274 272 271 270 269 270 269 269 269 269 269 268 267 268 270 272 272 271
292 291 289 292 288 288 288 288 287 287 287 286 286 285 285 285 285 284 283 282 281 280 279 280 280 279 276 272 272 271 269 269 270 270 270 270 269 268 268 270 270 271 272 272
292 291 291 291 290 290 290 289 288 286 285 286 286 287 287 286 285 286 285 284 284 283 281 280 280 280 278 274 273 273 272 271 271 272 272 271 269 269 271 271 272 273 273 273
292 291 291 294 293 292 290 290 290 288 286 286 287 287 288 287 287 287 288 288 287 286 283 282 282 281 279 278 276 275 275 274 274 275 275 273 271 271 271 272 273 273 274 274
291 290 292 293 292 291 291 292 292 291 288 286 287 288 288 287 288 289 290 291 289 287 284 283 283 281 281 280 280 278 277 277 277 277 276 275 273 272 272 273 275 276 276 275
290 289 293 292 289 289 290 290 290 290 290 287 287 289 289 288 288 289 291 293 292 288 285 284 283 283 283 283 283 282 280 280 279 278 277 274 274 273 274 275 276 277 278 276
287 289 291 289 288 287 287 288 287 288 289 288 287 288 289 288 287 289 291 293 293 290 287 286 285 285 285 284 285 285 283 282 281 281 278 275 273 273 275 276 276 277 278 277
284 287 287 287 288 286 286 287 288 285 285 287 288 287 288 287 288 289 291 293 294 291 288 288 287 286 286 285 286 287 286 283 282 280 279 277 274 274 275 276 277 277 276 278
284 286 285 285 286 286 287 288 288 286 284 285 286 286 286 287 289 290 292 293 294 292 289 289 289 288 286 285 286 287 286 284 283 281 279 278 276 275 275 275 275 275 275 277
282 282 282 283 284 286 286 286 286 285 285 285 284 283 284 286 288 290 292 294 294 292 291 292 291 288 286 286 287 287 286 284 282 280 280 280 280 278 275 274 274 275 275 276
282 280 279 281 283 284 285 286 285 284 284 285 284 283 285 286 286 288 292 293 292 292 291 291 290 288 287 286 287 286 286 284 281 280 282 283 281 278 275 274 273 274 275 277
280 280 279 280 283 283 284 285 284 283 284 285 285 284 286 287 287 288 291 290 290 291 291 291 290 289 289 286 284 284 283 283 283 283 284 282 280 277 273 272 273 275 277 278
279 278 278 280 281 283 284 285 284 283 284 285 286 286 288 288 289 290 291 290 290 290 289 289 289 288 288 285 282 281 282 283 283 283 284 284 281 278 274 273 275 276 276 277
279 277 277 279 280 281 282 283 282 282 284 286 286 287 288 288 289 290 290 289 289 290 289 288 286 286 286 285 282 281 280 282 283 283 283 284 283 279 277 278 278 276 274 273
280 278 278 280 280 280 280 280 280 283 285 285 286 287 288 288 290 289 289 288 288 288 287 287 285 285 286 284 280 278 279 282 283 284 283 282 281 280 279 280 278 275 275 274
283 281 278 280 281 280 280 280 281 284 285 287 287 289 289 289 289 288 288 287 288 287 286 286 284 284 284 281 276 275 277 279 281 283 283 282 281 280 278 277 275 276 277 275
284 282 279 279 280 280 279 278 280 283 285 287 287 288 288 288 288 288 288 287 288 288 286 284 282 282 281 278 274 273 275 278 280 280 281 282 282 281 278 274 271 273 278 276
286 284 282 280 280 280 279 278 280 283 286 289 289 288 288 289 289 289 289 288 287 287 285 284 283 281 279 277 273 270 269 272 276 278 279 280 280 278 275 268 263 266 269 268
290 288 286 284 282 282 280 278 280 283 287 289 289 290 290 290 291 291 289 288 287 286 283 282 283 281 279 276 272 266 264 269 272 273 274 274 274 272 267 257 254 258 261 262
291 289 288 288 286 283 281 281 281 284 287 289 290 292 293 293 293 292 291 289 287 284 281 281 281 279 279 273 266 262 262 266 268 268 265 264 265 263 260 255 254 251 252 259
291 289 288 286 284 283 282 284 286 287 289 291 292 293 294 294 295 295 292 290 289 286 283 281 277 274 273 266 261 259 260 263 262 259 255 255 256 256 256 254 250 242 241 251
290 285 284 283 282 282 286 289 290 291 292 294 295 294 293 293 295 294 294 293 291 287 284 280 272 267 264 261 258 256 257 258 257 254 251 248 247 245 247 249 242 233 232 236
285 284 283 283 283 283 287 290 290 292 294 295 295 294 290 290 292 294 295 295 294 289 283 276 269 264 259 256 254 253 254 252 251 249 247 245 243 241 240 240 237 233 225 222
284 284 283 283 284 285 288 290 291 292 293 295 295 293 290 290 291 292 293 293 292 288 283 277 269 261 254 251 250 250 249 248 247 245 244 245 243 238 236 236 232 224 217 215
283 284 284 284 283 285 288 292 294 294 294 294 292 290 289 291 292 292 291 291 292 288 282 277 268 257 250 245 243 241 241 242 242 238 237 237 233 229 228 226 219 212 212 210
Height
5584 5583 5582 5581 5580 5579 5578 5577 5575 5575 5574 5573 5571 5569 5567 5566 5564 5563 5562 5562 5561 5560 5559 5558 5557 5557 5556 5556 5555 5555 5555 5555 5555 5555 5555 5555 5555 5556 5556 5556 5556 5556 5556 5556
5579 5578 5576 5574 5574 5573 5572 5570 5568 5567 5567 5566 5564 5562 5560 5559 5557 5556 5555 5554 5553 5552 5551 5550 5549 5549 5548 5547 5547 5546 5546 5545 5545 5545 5545 5546 5546 5546 5546 5546 5546 5546 5546 5546
5572 5571 5569 5568 5569 5567 5566 5564 5562 5560 5561 5559 5556 5555 5553 5552 5551 5549 5548 5547 5546 5545 5544 5543 5542 5541 5540 5539 5538 5538 5537 5537 5536 5536 5536 5536 5536 5536 5536 5536 5536 5536 5536 5536
5565 5565 5563 5566 5562 5561 5559 5558 5556 5554 5553 5551 5550 5548 5547 5545 5544 5543 5542 5540 5539 5538 5537 5535 5534 5533 5532 5531 5530 5530 5529 5529 5529 5528 5528 5527 5527 5527 5527 5527 5527 5527 5526 5526
5559 5557 5556 5558 5556 5554 5552 5552 5550 5548 5546 5545 5543 5542 5541 5539 5538 5536 5535 5533 5532 5530 5529 5528 5527 5525 5524 5523 5523 5522 5521 5521 5520 5520 5519 5519 5518 5518 5518 5518 5518 5517 5517 5516
5552 5550 5549 5552 5550 5547 5546 5545 5544 5541 5540 5538 5537 5536 5536 5533 5531 5529 5528 5526 5524 5523 5522 5521 5519 5518 5517 5516 5515 5514 5513 5513 5512 5512 5511 5510 5510 5510 5509 5509 5509 5508 5507 5507
5546 5543 5543 5545 5543 5541 5540 5540 5537 5535 5533 5531 5530 5529 5528 5526 5524 5522 5521 5519 5517 5516 5515 5513 5512 5511 5510 5508 5507 5506 5505 5505 5504 5503 5502 5502 5501 5501 5501 5500 5500 5499 5498 5498
5540 5537 5539 5538 5536 5534 5533 5531 5529 5527 5526 5524 5523 5521 5520 5519 5517 5515 5514 5512 5510 5509 5507 5506 5504 5503 5502 5501 5500 5499 5498 5497 5496 5495 5494 5494 5493 5493 5492 5492 5491 5491 5490 5489
5534 5534 5532 5530 5528 5527 5525 5524 5522 5520 5519 5517 5516 5515 5513 5512 5510 5508 5507 5505 5503 5501 5500 5498 5497 5496 5495 5493 5492 5491 5490 5489 5488 5487 5487 5486 5485 5485 5484 5484 5483 5483 5482 5481
5526 5526 5525 5523 5521 5519 5517 5516 5515 5513 5512 5510 5509 5508 5506 5505 5503 5502 5500 5498 5496 5494 5493 5491 5489 5488 5487 5486 5485 5483 5482 5481 5480 5479 5479 5478 5478 5477 5477 5477 5476 5475 5475 5474
5518 5518 5517 5516 5514 5512 5510 5509 5507 5506 5504 5503 5502 5500 5499 5498 5496 5495 5493 5491 5489 5487 5486 5484 5482 5481 5479 5478 5477 5476 5475 5474 5473 5472 5472 5471 5471 5470 5470 5469 5468 5468 5468 5467
5511 5511 5508 5508 5506 5504 5503 5501 5500 5498 5497 5496 5494 5493 5492 5491 5490 5488 5486 5484 5482 5480 5479 5477 5475 5474 5472 5471 5470 5469 5468 5467 5467 5466 5465 5465 5464 5463 5462 5462 5461 5461 5460 5460
5502 5501 5500 5499 5498 5497 5495 5494 5492 5491 5490 5489 5487 5486 5485 5484 5483 5481 5479 5477 5475 5474 5472 5470 5468 5467 5465 5465 5464 5463 5462 5461 5460 5460 5459 5459 5458 5457 5457 5456 5455 5454 5454 5454
5494 5492 5491 5492 5491 5489 5488 5487 5485 5484 5482 5481 5480 5479 5478 5477 5475 5474 5472 5470 5468 5467 5465 5463 5462 5460 5459 5458 5457 5456 5456 5455 5455 5454 5453 5452 5452 5451 5450 5450 5449 5448 5448 5448
5486 5484 5483 5483 5483 5482 5481 5479 5478 5477 5476 5475 5474 5472 5471 5470 5468 5466 5465 5463 5462 5460 5459 5457 5456 5454 5453 5452 5452 5451 5450 5449 5449 5448 5447 5447 5446 5445 5444 5444 5444 5443 5443 5443
5478 5476 5476 5475 5475 5474 5473 5472 5471 5471 5470 5468 5467 5466 5464 5463 5461 5459 5458 5456 5455 5454 5452 5451 5450 5449 5447 5447 5446 5446 5445 5444 5444 5443 5442 5441 5440 5439 5439 5439 5438 5438 5438 5438
5469 5469 5468 5468 5467 5467 5466 5465 5465 5464 5463 5462 5461 5459 5458 5456 5455 5453 5452 5450 5449 5448 5447 5446 5444 5443 5442 5441 5441 5440 5440 5439 5439 5438 5437 5436 5435 5434 5434 5434 5434 5433 5433 5433
5462 5461 5461 5460 5460 5459 5459 5458 5458 5457 5456 5455 5454 5453 5451 5450 5448 5447 5446 5444 5443 5442 5441 5440 5439 5437 5436 5436 5435 5435 5435 5434 5434 5433 5432 5431 5430 5430 5430 5430 5430 5429 5429 5429
5455 5454 5453 5453 5452 5452 5452 5452 5451 5451 5450 5449 5448 5446 5445 5443 5442 5441 5439 5438 5437 5436 5435 5434 5433 5432 5431 5431 5430 5430 5430 5430 5429 5429 5428 5427 5427 5426 5426 5426 5426 5426 5426 5426
5449 5448 5447 5446 5445 5445 5445 5445 5445 5444 5443 5442 5441 5440 5439 5437 5436 5435 5433 5432 5431 5430 5429 5429 5428 5427 5426 5426 5426 5426 5426 5425 5425 5425 5425 5424 5424 5423 5423 5423 5424 5424 5424 5424
5443 5441 5440 5440 5439 5439 5438 5438 5438 5438 5437 5436 5435 5434 5433 5431 5430 5429 5427 5427 5426 5425 5424 5424 5423 5423 5422 5422 5422 5422 5422 5422 5422 5422 5421 5421 5421 5421 5421 5421 5422 5422 5422 5422
5437 5436 5435 5434 5433 5433 5433 5433 5432 5432 5431 5430 5429 5428 5427 5426 5424 5423 5422 5421 5420 5419 5419 5419 5418 5418 5418 5418 5418 5418 5418 5418 5418 5418 5419 5419 5419 5419 5419 5420 5420 5420 5421 5421
5431 5430 5429 5429 5428 5428 5428 5427 5427 5426 5426 5425 5424 5423 5422 5420 5419 5418 5417 5416 5415 5415 5414 5414 5414 5414 5414 5414 5414 5415 5415 5415 5415 5416 5416 5416 5417 5417 5418 5418 5418 5419 5419 5420
5426 5425 5424 5424 5424 5424 5423 5423 5422 5422 5421 5420 5419 5418 5417 5416 5414 5413 5412 5411 5410 5410 5409 5409 5409 5409 5410 5410 5411 5411 5412 5412 5413 5413 5414 5414 5415 5415 5416 5416 5417 5417 5418 5419
5421 5420 5420 5420 5419 5419 5419 5418 5418 5417 5416 5415 5414 5413 5412 5411 5410 5409 5408 5407 5406 5405 5405 5405 5405 5406 5406 5407 5408 5408 5409 5410 5410 5411 5411 5412 5413 5413 5414 5415 5415 5416 5417 5418
5416 5416 5415 5415 5415 5415 5414 5414 5413 5412 5411 5410 5409 5408 5407 5406 5405 5404 5403 5403 5402 5402 5401 5401 5401 5402 5403 5404 5404 5405 5406 5407 5408 5408 5409 5410 5410 5411 5412 5413 5414 5415 5416 5417
5412 5411 5411 5411 5410 5410 5409 5409 5408 5407 5406 5406 5405 5404 5403 5402 5402 5401 5400 5399 5399 5398 5398 5398 5398 5399 5399 5400 5401 5402 5403 5404 5405 5406 5407 5408 5409 5409 5411 5412 5413 5414 5415 5416